West Palm Beach, FL

9:03 PM EST on December 06, 2019 (GMT -0500)
Palm Beach International

Weather History for KPBI - October, 2019

Change the Weather History Date:

Thursday, October 3, 2019

  Actual Average Record
Temperature  
Mean Temperature 83 °F 80 °F  
Max Temperature 87 °F 87 °F 93 °F (1988)
Min Temperature 79 °F 74 °F 60 °F (1929)
Degree Days  
Heating Degree Days 0 0  
Month to date heating degree days 0 0  
Since 1 July heating degree days 0 0  
Cooling Degree Days 18 15  
Month to date cooling degree days 55 47  
Year to date cooling degree days 3764 3255  
Growing Degree Days 33 (Base 50)    
Moisture  
Dew Point 70 °F    
Average Humidity 65    
Maximum Humidity 74    
Minimum Humidity 55    
Precipitation  
Precipitation 0.00 in 0.21 in 3.12 in (1899)
Month to date precipitation T 0.62  
Year to date precipitation 45.35 49.69  
Snow  
Snow 0.00 in - - ()
Month to date snowfall 0.0  
Since 1 July snowfall 0.0  
Since 1 September snowfall 0.0  
Snow Depth 0.00 in    
Sea Level Pressure  
Sea Level Pressure 29.97 in    
Wind  
Wind Speed 11 mph (East)    
Max Wind Speed 17 mph    
Max Gust Speed 22 mph    
Visibility 10 miles    
Events      
T = Trace of Precipitation, MM = Missing Value Source: NWS Daily Summary

Daily Weather History Graph

Daily Weather History Graph

Search for Another Location

Airport or City:

Astronomy

Oct. 03, 2019 Rise Set
Actual Time 7:13 AM EDT 7:04 PM EDT
Civil Twilight 6:50 AM EDT 7:27 PM EDT
Nautical Twilight 6:23 AM EDT 7:54 PM EDT
Astronomical Twilight 5:56 AM EDT 8:21 PM EDT
Moon 12:16 PM EDT (10/3) 11:10 PM EDT (10/3)
Length of Visible Light 12h 37m
Length of Day
11h 51m
Waxing Crescent, 29% of the Moon is Illuminated
Oct 3
Waxing Crescent
Oct 5
First Quarter
Oct 13
Full
Oct 21
Last Quarter
Oct 27
New

Hourly Weather History & Observations

Time (EDT) Temp. Heat Index Dew Point Humidity Pressure Visibility Wind Dir Wind Speed Gust Speed Precip Events Conditions
12:53 AM 81.0 °F 84.9 °F 71.1 °F 72% 29.95 in 10.0 mi East 11.5 mph - N/A   Scattered Clouds
1:53 AM 80.1 °F 83.6 °F 71.1 °F 74% 29.94 in 10.0 mi East 9.2 mph - N/A   Scattered Clouds
2:53 AM 80.1 °F 83.6 °F 71.1 °F 74% 29.93 in 10.0 mi East 11.5 mph - N/A   Scattered Clouds
3:53 AM 80.1 °F 83.6 °F 71.1 °F 74% 29.92 in 10.0 mi East 10.4 mph - N/A   Scattered Clouds
4:53 AM 80.1 °F 83.6 °F 71.1 °F 74% 29.93 in 10.0 mi ENE 8.1 mph - N/A   Scattered Clouds
5:53 AM 80.1 °F 83.2 °F 70.0 °F 71% 29.94 in 10.0 mi East 11.5 mph - N/A   Scattered Clouds
6:53 AM 80.1 °F 83.2 °F 70.0 °F 71% 29.95 in 10.0 mi East 9.2 mph - N/A   Scattered Clouds
7:53 AM 80.1 °F 83.2 °F 70.0 °F 71% 29.96 in 10.0 mi East 9.2 mph - N/A   Scattered Clouds
8:53 AM 82.0 °F 86.3 °F 71.1 °F 69% 29.97 in 10.0 mi East 12.7 mph - N/A   Scattered Clouds
9:53 AM 84.0 °F 88.4 °F 70.0 °F 63% 29.99 in 10.0 mi East 12.7 mph - N/A   Scattered Clouds
10:53 AM 84.9 °F 89.4 °F 70.0 °F 61% 30.01 in 10.0 mi East 15.0 mph - N/A   Scattered Clouds
11:53 AM 86.0 °F 90.1 °F 69.1 °F 57% 30.00 in 10.0 mi East 13.8 mph - N/A   Scattered Clouds
12:53 PM 87.1 °F 91.3 °F 69.1 °F 55% 29.99 in 10.0 mi East 16.1 mph 20.7 mph N/A   Scattered Clouds
1:53 PM 86.0 °F 90.7 °F 70.0 °F 59% 29.99 in 10.0 mi East 15.0 mph - N/A   Scattered Clouds
2:53 PM 84.9 °F 88.8 °F 69.1 °F 59% 29.97 in 10.0 mi East 10.4 mph - N/A   Scattered Clouds
3:53 PM 84.9 °F 88.8 °F 69.1 °F 59% 29.96 in 10.0 mi ENE 13.8 mph 20.7 mph N/A   Scattered Clouds
4:53 PM 82.9 °F 86.5 °F 69.1 °F 63% 29.95 in 10.0 mi NE 11.5 mph - N/A   Scattered Clouds
5:53 PM 82.9 °F 86.5 °F 69.1 °F 63% 29.96 in 10.0 mi ENE 13.8 mph - N/A   Scattered Clouds
6:53 PM 81.0 °F 84.1 °F 69.1 °F 67% 29.96 in 10.0 mi ENE 12.7 mph - N/A   Scattered Clouds
7:53 PM 81.0 °F 84.1 °F 69.1 °F 67% 29.97 in 10.0 mi East 10.4 mph - N/A   Scattered Clouds
8:53 PM 80.1 °F 82.7 °F 68.0 °F 67% 29.99 in 10.0 mi ENE 11.5 mph - N/A   Scattered Clouds
9:53 PM 80.1 °F 82.9 °F 69.1 °F 69% 30.00 in 10.0 mi East 8.1 mph - N/A   Partly Cloudy
10:53 PM 80.1 °F 82.9 °F 69.1 °F 69% 30.00 in 10.0 mi East 8.1 mph - N/A   Partly Cloudy
11:53 PM 80.1 °F 82.9 °F 69.1 °F 69% 30.00 in 10.0 mi East 8.1 mph - N/A   Clear